Simultaneous Nadir Overpasses (SNOs) Predictions

Prediction of SNOs between GOES-14 and AQUA Satellite Orbit:

Table of predicted SNOs for the next 14.0 days since TLE Epoch: 8/26/2023
Index Date Time (GOES-14) GOES-14 Lat,Lon AQUA Lat,Lon Distance(km) Time Diff (sec)
1 08/26/2023 21:01:57 -0.44,-108.52 -0.07,-106.94 181.18 80
2 08/27/2023 09:21:30 0.43,-108.62 1.13,-111.95 377.75 12
3 08/29/2023 09:05:32 0.43,-108.61 0.38,-108.42 21.72 80
4 08/31/2023 08:51:06 0.42,-108.61 -0.39,-104.91 421.84 80
5 08/31/2023 21:11:54 -0.41,-108.51 -0.74,-109.93 163.09 80
6 09/02/2023 21:00:07 -0.42,-108.50 0.02,-106.41 237.90 80
7 09/03/2023 09:18:08 0.41,-108.61 1.02,-111.42 320.27 80
8 09/05/2023 09:06:21 0.41,-108.61 0.23,-107.90 80.80 80
9 09/07/2023 08:51:52 0.40,-108.60 -0.48,-104.36 481.69 80
10 09/07/2023 21:10:00 -0.39,-108.49 -0.61,-109.40 103.65 80
